GW6470 Weather Reports


time (UTC)temp
F
wind
direction
speed
knots
gust
knots
rain 1hr
in
rain 24hr
in
rain mn
in
humidity
%
barometer
mb
20260505083630 51 52 0.0 0.0 0.00 0.00 0.00 93 1014.3
20260505083126 51 52 0.0 0.0 0.00 0.00 0.00 93 1014.4
20260505082622 51 52 0.0 0.0 0.00 0.00 0.00 93 1014.4
20260505082120 51 52 0.0 0.0 0.00 0.00 0.00 93 1014.2
20260505081615 51 52 0.0 0.0 0.00 0.00 0.00 93 1014.4
20260505081113 51 43 0.0 0.0 0.00 0.00 0.00 92 1014.0
20260505080609 52 43 0.0 0.0 0.00 0.00 0.00 92 1013.9
20260505080106 52 43 0.0 0.0 0.00 0.00 0.00 92 1014.0
20260505075602 52 43 0.0 0.0 0.00 0.00 0.00 92 1014.0
20260505075059 52 46 0.0 0.0 0.00 0.00 0.00 92 1013.8
20260505074555 52 50 0.0 0.0 0.00 0.00 0.00 93 1013.7
20260505074053 53 48 0.0 0.0 0.00 0.00 0.00 92 1013.7
20260505073550 53 48 0.0 0.0 0.00 0.00 0.00 92 1013.6
20260505073049 53 48 0.0 0.0 0.00 0.00 0.00 92 1013.6
20260505072549 53 47 0.0 0.0 0.00 0.00 0.00 91 1013.5
20260505072046 53 40 0.0 0.0 0.00 0.00 0.00 91 1013.5
20260505071541 54 34 0.0 0.0 0.00 0.00 0.00 91 1013.6
20260505071040 54 25 0.0 0.0 0.00 0.00 0.00 91 1013.5
20260505070537 54 64 0.0 0.0 0.00 0.00 0.00 91 1013.4
20260505070033 54 63 0.0 0.0 0.00 0.00 0.00 91 1013.3
20260505065529 55 63 0.0 0.0 0.00 0.00 0.00 91 1013.2
20260505065025 55 74 0.0 0.0 0.00 0.00 0.00 91 1013.2
20260505064522 55 54 0.0 0.0 0.00 0.00 0.00 90 1013.0
20260505064021 55 62 0.0 0.0 0.00 0.00 0.00 89 1012.9
20260505063518 55 62 0.0 0.0 0.00 0.00 0.00 89 1012.7
20260505063013 56 71 0.0 0.0 0.00 0.00 0.00 89 1012.9
20260505062511 56 113 0.0 0.0 0.00 0.00 0.00 89 1012.8
20260505062008 57 82 0.0 0.0 0.00 0.00 0.00 88 1012.8
20260505061505 57 131 0.0 0.0 0.00 0.00 0.00 87 1012.8
20260505061003 57 158 0.0 0.0 0.00 0.00 0.00 87 1012.8
20260505060500 58 146 0.0 0.0 0.00 0.00 0.00 85 1012.9
20260505055956 58 99 0.0 0.0 0.00 0.00 0.00 81 1012.7
20260505055452 58 45 0.0 0.0 0.00 0.00 0.00 82 1012.6
20260505054949 58 25 0.0 0.0 0.00 0.00 0.00 82 1012.8
20260505054446 58 47 0.0 0.0 0.00 0.00 0.00 81 1012.7
20260505053944 58 194 0.0 0.0 0.00 0.00 0.00 81 1012.6
20260505053441 59 294 0.0 0.0 0.00 0.00 0.00 81 1012.6
20260505052938 59 323 0.0 0.0 0.00 0.00 0.00 81 1012.4
20260505052435 59 297 0.0 0.0 0.00 0.00 0.00 80 1012.5
20260505051932 60 289 0.0 0.0 0.00 0.00 0.00 79 1012.3
20260505051429 60 294 0.0 0.0 0.00 0.00 0.00 78 1012.4
20260505050927 60 187 0.0 0.0 0.00 0.00 0.00 79 1012.3
20260505050425 60 252 0.0 0.0 0.00 0.00 0.00 80 1012.2
20260505041352 64 163 0.0 0.0 0.00 0.00 0.00 76 1011.7
20260505040850 64 184 0.0 0.0 0.00 0.00 0.00 75 1011.8
20260505040347 64 165 0.0 0.0 0.00 0.00 0.00 76 1011.5
20260505035844 64 219 0.0 0.0 0.00 0.00 0.00 76 1011.4
20260505035339 65 288 0.0 0.0 0.00 0.00 0.00 74 1011.3
20260505034837 65 275 0.0 0.0 0.00 0.00 0.00 72 1011.3
20260505034333 65 19 0.0 0.0 0.00 0.00 0.00 74 1010.9
20260505033831 65 225 0.0 0.0 0.00 0.00 0.00 75 1011.3
20260505033328 66 282 0.0 0.0 0.00 0.00 0.00 73 1011.2
20260505032826 66 204 0.0 0.0 0.00 0.00 0.00 71 1010.8
20260505032322 67 216 0.0 0.0 0.00 0.00 0.00 70 1011.1
20260505031819 67 203 0.0 0.0 0.00 0.00 0.00 69 1010.7
20260505031315 67 189 0.0 0.0 0.00 0.00 0.00 70 1011.0
20260505030813 68 193 0.0 0.0 0.00 0.00 0.00 70 1010.6
20260505030310 68 135 0.0 0.0 0.00 0.00 0.00 69 1010.7
20260505025804 68 158 0.0 0.0 0.00 0.00 0.00 70 1010.6
20260505025304 69 155 0.0 0.0 0.00 0.00 0.00 70 1010.4
20260505024800 69 141 0.0 0.0 0.00 0.00 0.00 67 1010.4
20260505024258 69 195 0.0 0.0 0.00 0.00 0.00 67 1010.6
20260505023755 70 211 0.0 0.0 0.00 0.00 0.00 67 1010.3
20260505023252 70 164 0.0 0.0 0.00 0.00 0.00 67 1010.3
20260505022749 71 223 0.0 0.0 0.00 0.00 0.00 65 1010.5
20260505022246 71 233 0.0 0.0 0.00 0.00 0.00 65 1010.2
20260505021742 72 208 0.0 0.0 0.00 0.00 0.00 62 1010.3
20260505021240 72 252 0.0 0.0 0.00 0.00 0.00 62 1010.2
20260505020735 72 213 0.0 0.0 0.00 0.00 0.00 61 1010.3
20260505020231 73 175 0.0 0.0 0.00 0.00 0.00 61 1010.2
20260505015728 73 220 0.0 0.0 0.00 0.00 0.00 61 1010.4
20260505015225 73 175 0.0 0.0 0.00 0.00 0.00 60 1010.5
20260505014722 73 209 0.0 0.0 0.00 0.00 0.00 60 1010.2
20260505014220 73 247 0.0 0.0 0.00 0.00 0.00 61 1010.2
20260505013716 73 238 0.0 0.0 0.00 0.00 0.00 60 1010.2
20260505013213 74 218 0.0 0.0 0.00 0.00 0.00 60 1010.3
20260505012712 75 178 0.0 0.0 0.00 0.00 0.00 62 1010.2
20260505012208 74 168 0.0 0.0 0.00 0.00 0.00 62 1010.2
20260505011704 74 153 0.0 0.0 0.00 0.00 0.00 61 1010.5
20260505011201 74 210 0.0 0.0 0.00 0.00 0.00 61 1010.4
20260505010657 74 145 0.0 0.0 0.00 0.00 0.00 61 1010.5
20260505010154 74 180 0.0 0.0 0.00 0.00 0.00 61 1010.6
20260505005650 75 209 0.0 0.0 0.00 0.00 0.00 60 1010.6
20260505005147 75 251 0.0 0.0 0.00 0.00 0.00 60 1010.6
20260505004644 74 216 0.0 0.0 0.00 0.00 0.00 62 1010.5
20260505004140 75 194 0.0 0.0 0.00 0.00 0.00 60 1010.6
20260505003638 76 181 0.0 0.0 0.00 0.00 0.00 60 1010.4
20260505003135 75 223 0.0 0.0 0.00 0.00 0.00 62 1010.6
20260505002631 75 205 0.0 0.0 0.00 0.00 0.00 61 1010.4
20260505002129 75 272 0.0 0.0 0.00 0.00 0.00 60 1010.7
20260505001626 76 222 0.0 0.0 0.00 0.00 0.00 61 1010.5
20260505001124 75 211 0.0 0.0 0.00 0.00 0.00 60 1010.6
20260505000621 75 228 0.0 0.0 0.00 0.00 0.00 62 1010.8
20260505000119 75 221 0.0 0.0 0.00 0.00 0.00 61 1010.7
20260504235615 74 262 0.0 0.0 0.00 0.00 0.00 62 1010.8
20260504235111 75 200 0.0 0.0 0.00 0.00 0.00 61 1010.8
20260504234609 75 219 0.0 0.0 0.00 0.00 0.00 61 1010.8
20260504234106 76 221 0.0 0.0 0.00 0.00 0.00 61 1011.0
20260504233601 75 166 0.0 0.0 0.00 0.00 0.00 61 1011.1
20260504233058 74 92 0.0 0.0 0.00 0.00 0.00 60 1011.2
20260504232555 74 53 0.0 0.0 0.00 0.00 0.00 60 1010.9
20260504232053 74 238 0.0 0.0 0.00 0.00 0.00 62 1011.0
20260504231549 74 223 0.0 0.0 0.00 0.00 0.00 61 1011.1
20260504231045 73 242 0.0 0.0 0.00 0.00 0.00 62 1011.2
20260504230541 74 231 0.0 0.0 0.00 0.00 0.00 62 1011.5
20260504230041 74 124 0.0 0.0 0.00 0.00 0.00 60 1011.2
20260504225537 74 213 0.0 0.0 0.00 0.00 0.00 60 1011.2
20260504225034 74 169 0.0 0.0 0.00 0.00 0.00 62 1011.2
20260504224531 74 229 0.0 0.9 0.00 0.00 0.00 62 1011.5
20260504224028 74 217 0.0 0.0 0.00 0.00 0.00 61 1011.4
20260504223524 74 238 0.0 0.0 0.00 0.00 0.00 60 1011.5
20260504223020 75 277 0.0 0.9 0.00 0.00 0.00 60 1011.5
20260504222517 73 86 0.0 0.0 0.00 0.00 0.00 63 1011.6
20260504222015 74 201 0.0 0.0 0.00 0.00 0.00 60 1011.6
20260504221512 74 231 0.0 0.0 0.00 0.00 0.00 60 1011.5
20260504221009 73 221 0.0 0.0 0.00 0.00 0.00 61 1011.9
20260504220505 73 281 0.0 0.0 0.00 0.00 0.00 63 1011.8
20260504220002 72 296 0.0 0.0 0.00 0.00 0.00 61 1012.0
20260504215459 73 259 0.0 0.0 0.00 0.00 0.00 61 1011.9
20260504214956 71 276 0.0 0.0 0.00 0.00 0.00 62 1012.0
20260504214452 71 28 0.0 0.0 0.00 0.00 0.00 62 1012.1
20260504213949 72 32 0.9 2.6 0.00 0.00 0.00 62 1012.1
20260504213444 71 137 0.0 0.0 0.00 0.00 0.00 65 1012.3
20260504212942 71 67 0.0 0.0 0.00 0.00 0.00 67 1012.2
20260504212438 69 130 0.0 0.0 0.00 0.00 0.00 67 1012.4
20260504211936 69 38 0.0 0.0 0.00 0.00 0.00 66 1012.4
20260504211432 70 53 0.0 0.0 0.00 0.00 0.00 68 1012.4
20260504210930 68 22 0.0 0.0 0.00 0.00 0.00 67 1012.8
20260504210426 70 78 0.0 0.0 0.00 0.00 0.00 66 1012.6
20260504205923 69 235 0.0 0.0 0.00 0.00 0.00 65 1012.9
20260504205421 67 63 0.0 0.0 0.00 0.00 0.00 69 1012.8
20260504204919 68 51 0.0 0.0 0.00 0.00 0.00 67 1013.0
20260504204417 68 120 0.0 0.0 0.00 0.00 0.00 66 1013.1
20260504203916 69 220 0.0 0.0 0.00 0.00 0.00 66 1013.1
20260504203413 69 17 0.0 0.0 0.00 0.00 0.00 65 1013.2
20260504202909 69 161 0.0 0.0 0.00 0.00 0.00 65 1013.4
20260504202406 67 25 0.0 0.0 0.00 0.00 0.00 68 1013.3
20260504201902 67 130 0.0 0.0 0.00 0.00 0.00 68 1013.1
20260504201400 67 99 0.0 0.0 0.00 0.00 0.00 70 1013.4
20260504200857 67 85 0.0 0.0 0.00 0.00 0.00 70 1013.4
20260504200353 66 225 0.0 0.0 0.00 0.00 0.00 69 1013.6
20260504195850 65 79 0.0 0.0 0.00 0.00 0.00 73 1013.3
20260504195346 64 24 0.0 0.0 0.00 0.00 0.00 73 1013.7
20260504194843 65 83 0.0 0.0 0.00 0.00 0.00 74 1013.4
20260504194339 63 115 0.0 0.0 0.00 0.00 0.00 75 1013.6
20260504193835 63 52 0.0 0.0 0.00 0.00 0.00 74 1013.5
20260504193332 64 204 0.0 0.0 0.00 0.00 0.00 73 1013.7
20260504192831 64 194 0.0 0.0 0.00 0.00 0.00 72 1013.6
20260504192329 62 29 0.0 0.0 0.00 0.00 0.00 75 1013.9
20260504191827 62 30 0.0 0.0 0.00 0.00 0.00 75 1013.8
20260504191324 63 30 0.0 0.0 0.00 0.00 0.00 74 1013.9
20260504190819 62 41 0.0 0.0 0.00 0.00 0.00 74 1013.9
20260504190316 63 182 0.0 0.0 0.00 0.00 0.00 74 1013.8
20260504185812 63 300 0.0 0.0 0.00 0.00 0.00 74 1013.9
20260504185309 61 3 0.0 0.0 0.00 0.00 0.00 75 1014.1
20260504184805 62 205 0.0 0.0 0.00 0.00 0.00 75 1014.0
20260504184301 60 250 0.0 0.0 0.00 0.00 0.00 77 1014.2
20260504183757 60 213 0.0 0.0 0.00 0.00 0.00 77 1014.3
20260504183254 60 255 0.0 0.0 0.00 0.00 0.00 78 1014.3
20260504182752 59 181 0.0 0.0 0.00 0.00 0.00 79 1014.1
20260504182249 60 125 0.0 0.0 0.00 0.00 0.00 79 1014.1
20260504181747 60 220 0.0 0.0 0.00 0.00 0.00 78 1013.8
20260504181244 60 256 0.0 0.0 0.00 0.00 0.00 78 1014.2
20260504180743 60 135 0.0 0.0 0.00 0.00 0.00 78 1014.1
20260504180241 60 104 0.0 0.0 0.00 0.00 0.00 78 1014.1
20260504175739 60 158 0.0 0.0 0.00 0.00 0.00 81 1014.0
20260504175235 59 42 0.0 0.0 0.00 0.00 0.00 79 1014.0
20260504174733 59 11 0.0 0.0 0.00 0.00 0.00 78 1014.2
20260504174231 59 23 0.0 0.0 0.00 0.00 0.00 79 1014.2
20260504173727 60 22 0.0 0.0 0.00 0.00 0.00 79 1014.2
20260504173224 59 147 0.0 0.0 0.00 0.00 0.00 79 1014.0
20260504172721 59 125 0.0 0.0 0.00 0.00 0.00 81 1013.9
20260504172217 59 189 0.0 0.0 0.00 0.00 0.00 80 1014.0
20260504171714 59 214 0.0 0.0 0.00 0.00 0.00 80 1014.0
20260504171211 58 217 0.0 0.0 0.00 0.00 0.00 82 1013.9
20260504170708 60 233 0.0 0.0 0.00 0.00 0.00 79 1013.9
20260504170205 59 230 0.0 0.0 0.00 0.00 0.00 80 1013.7
20260504160124 58 245 0.0 0.0 0.00 0.00 0.00 82 1013.8
20260504151051 58 13 0.0 0.0 0.00 0.00 0.00 81 1013.5
20260504150548 58 205 0.0 0.0 0.00 0.00 0.00 81 1013.4
20260504141014 55 33 0.0 0.0 0.00 0.00 0.00 87 1012.9
20260504140510 55 6 0.0 0.0 0.00 0.00 0.00 88 1012.7
20260504130435 52 70 0.0 0.0 0.00 0.00 0.00 91 1011.7
20260504110322 54 46 0.0 0.0 0.00 0.00 0.00 90 1009.9
20260504100240 55 30 0.0 0.0 0.00 0.00 0.00 90 1009.3